Temperature
18 18 18 18 18 18 18 18 18 18 18 18 18 18 18 18 18 18 18 18 18 18 18 18 18 18 18 18 18 18 18 18 18 18 18 18 18 18 18 18 18 18 18
18 18 18 18 18 18 18 18 18 18 18 17 17 17 17 17 17 17 17 17 17 17 18 18 18 18 18 18 18 18 18 18 18 18 18 18 18 18 18 18 18 18 18
18 18 18 18 18 18 18 17 17 17 17 17 17 17 17 17 17 17 17 17 17 17 17 17 17 17 18 18 18 18 18 18 18 18 17 17 18 18 18 18 18 18 18
17 17 18 18 17 17 17 17 17 17 17 17 17 17 17 17 17 17 17 17 17 17 17 17 17 17 17 18 18 18 18 18 18 18 17 17 17 18 18 18 18 18 18
17 18 18 17 17 17 17 17 17 17 17 17 16 16 16 16 16 16 16 16 16 16 16 17 17 17 17 17 17 17 18 18 18 17 17 17 17 18 18 18 18 18 18
17 18 18 17 17 17 17 16 16 16 16 16 16 16 16 16 16 16 16 16 16 16 16 16 17 17 17 17 17 17 17 18 17 17 17 17 17 17 18 18 18 18 18
17 17 17 17 17 17 17 16 16 16 16 16 16 16 16 16 16 16 16 16 16 16 16 16 16 16 16 17 17 17 17 17 17 17 17 17 17 17 18 18 18 18 18
18 18 18 17 17 17 17 16 16 16 16 16 16 16 16 16 16 16 16 15 15 15 15 16 16 16 16 17 17 17 17 17 17 17 17 17 17 17 18 18 18 18 18
18 18 18 17 17 17 17 17 16 16 16 16 16 16 16 16 16 16 16 16 15 15 15 16 16 16 16 17 17 17 17 17 17 17 17 17 17 17 18 18 18 18 18
18 18 18 17 17 17 17 17 17 16 16 16 16 16 16 16 16 15 15 16 16 16 16 16 16 16 16 17 17 17 17 17 17 17 17 17 17 17 18 18 18 18 18
19 18 18 18 18 17 17 17 17 16 16 16 16 16 16 16 16 16 16 16 16 16 16 16 16 16 16 16 17 17 17 17 17 17 17 17 17 17 17 17 17 18 18
19 19 19 19 18 18 18 17 17 17 16 16 16 16 16 16 16 16 16 16 16 16 16 16 16 16 16 16 17 17 17 17 17 17 17 17 17 17 17 17 17 17 18
19 19 19 19 19 18 18 17 17 17 17 16 16 16 16 16 16 16 16 16 16 16 16 16 16 16 16 17 17 17 17 17 17 17 17 17 17 17 17 17 17 17 17
20 20 19 19 19 18 18 18 17 17 17 17 16 16 16 16 16 16 16 16 16 16 16 16 16 16 16 17 17 17 17 17 17 17 17 17 17 17 17 17 17 17 17
20 19 19 19 19 19 18 18 18 17 17 17 17 17 16 16 16 16 16 16 16 16 16 16 16 16 16 16 17 17 17 17 17 17 17 17 17 17 17 17 17 17 17
20 19 19 19 19 19 19 18 18 18 17 17 17 17 17 16 16 16 16 16 16 16 16 16 16 16 16 16 16 16 16 16 16 16 16 16 16 16 16 17 17 17 17
20 20 19 19 19 19 18 18 18 18 17 17 17 17 17 16 16 16 16 16 16 16 16 16 16 16 16 16 16 16 16 16 16 16 16 16 16 16 16 16 17 17 17
20 20 19 19 19 18 18 18 18 17 17 17 16 17 17 16 16 16 16 16 15 15 15 16 16 16 16 16 16 16 16 16 16 16 16 16 16 16 16 16 16 17 17
20 20 19 19 19 18 18 18 17 17 17 17 16 16 16 16 16 15 15 15 15 15 15 15 16 16 16 16 16 16 16 16 16 16 16 16 16 16 16 16 16 16 17
21 20 20 19 19 18 18 18 17 17 17 16 16 16 16 16 15 15 15 15 15 15 15 15 15 16 16 16 16 16 16 16 16 16 16 16 16 16 16 16 16 16 16
20 20 20 19 19 18 18 18 17 17 17 16 16 16 16 15 15 15 15 15 15 15 15 15 15 15 15 16 16 16 16 16 16 16 16 16 16 16 16 16 16 16 16
20 20 20 19 19 18 18 18 17 17 17 16 16 16 15 15 15 15 15 15 15 15 15 15 15 15 15 15 16 16 16 16 16 16 16 16 16 16 16 16 16 16 16
20 20 20 20 19 18 18 18 17 17 17 16 16 16 15 15 15 15 15 15 15 15 15 15 15 15 15 15 15 15 15 15 16 16 16 16 16 16 16 16 16 16 16
21 20 20 20 19 19 18 18 17 17 17 17 16 16 16 15 15 15 15 15 15 15 15 15 15 15 15 15 15 15 15 16 16 15 15 15 15 16 16 16 16 16 16
21 20 20 20 19 18 18 18 17 17 17 17 16 16 16 16 15 15 15 15 15 15 15 15 15 15 15 15 15 15 15 15 16 15 15 15 15 15 15 15 15 15 15
20 20 20 19 19 18 18 18 17 17 17 17 16 16 16 16 16 15 15 15 15 15 15 15 15 15 15 15 15 15 15 15 15 15 15 15 15 15 15 15 15 15 15
Wind_Speed
9 12 13 13 13 13 13 12 12 12 12 12 12 12 12 12 11 10 10 11 11 11 11 11 10 10 10 10 9 9 9 8 7 7 7 8 8 9 10 11 11 10 11
13 14 14 14 14 13 13 13 13 12 12 12 11 11 11 11 10 10 10 10 10 10 10 10 10 10 10 9 9 9 8 7 6 5 4 5 7 9 10 11 11 10 11
14 15 15 14 14 14 14 13 13 13 12 12 12 11 11 10 10 10 10 10 10 10 10 10 10 9 9 9 9 8 7 7 7 6 5 3 7 9 10 10 11 11 11
15 15 15 15 15 15 14 14 13 13 13 12 12 12 11 11 10 10 10 9 9 9 9 9 9 9 9 8 8 7 7 7 8 7 5 7 8 10 10 10 10 10 10
16 16 15 15 15 15 14 14 14 13 13 12 12 11 11 10 10 10 10 9 9 8 8 8 8 7 7 7 7 7 7 8 9 6 5 9 10 10 10 10 10 10 10
15 16 14 15 15 15 14 14 14 13 12 12 11 10 10 10 9 9 9 8 8 7 7 7 7 6 6 6 6 6 7 8 8 4 5 8 9 9 10 9 9 9 10
14 15 15 15 15 15 14 14 13 12 11 11 10 10 9 9 8 8 7 7 7 6 6 6 6 6 5 5 6 6 7 8 6 2 4 7 9 9 9 9 9 9 9
14 15 15 15 15 14 14 13 12 11 10 10 9 8 7 6 6 6 7 6 6 6 5 5 5 5 5 4 5 5 7 8 5 3 6 8 9 9 8 8 8 8 8
11 13 14 14 14 14 13 12 10 9 8 7 6 4 4 4 5 5 6 6 6 5 5 4 4 3 3 3 4 5 6 7 7 3 5 9 9 9 8 7 7 7 8
8 8 10 13 14 14 12 11 9 8 6 5 3 3 3 3 3 4 6 5 4 3 3 3 3 2 3 4 6 7 7 7 5 2 6 10 10 8 7 6 7 7 7
7 7 7 7 9 11 12 11 10 8 6 6 6 5 5 4 6 6 6 4 2 0 1 3 4 5 6 7 9 8 8 5 2 6 9 10 9 8 6 6 6 7 7
7 7 6 6 6 7 7 9 8 7 6 4 3 1 1 3 2 4 6 4 3 3 3 6 7 7 8 8 8 9 6 3 2 7 9 10 9 7 6 6 6 6 6
7 5 6 6 5 6 5 6 4 4 5 6 3 3 5 4 2 4 4 5 5 4 3 5 7 6 4 3 2 3 1 2 5 9 10 10 8 7 6 6 6 6 6
7 6 5 6 6 7 6 3 3 4 4 5 6 6 5 2 2 3 2 3 3 2 2 4 4 3 3 3 1 2 3 4 6 9 9 10 8 7 6 5 6 6 6
7 6 6 6 7 6 3 1 5 4 4 6 4 6 6 3 2 2 2 2 4 4 3 3 3 3 3 3 4 4 3 3 6 8 9 9 8 7 6 6 6 6 6
7 7 6 6 5 5 4 3 4 4 4 6 4 5 6 4 3 3 3 3 3 4 4 4 3 2 2 2 3 3 4 4 6 7 9 9 8 7 6 6 6 6 6
8 8 6 5 5 7 6 5 4 5 7 5 5 6 7 7 7 5 4 3 3 6 5 4 5 3 3 2 2 3 3 4 5 5 7 8 8 7 6 6 6 6 6
9 9 6 6 7 7 6 4 4 6 5 5 8 10 10 10 10 6 3 3 6 7 5 3 4 4 3 3 3 3 3 3 4 4 4 7 8 7 7 6 6 6 6
8 9 8 7 7 7 5 3 4 5 4 7 9 9 11 11 11 6 3 4 7 4 4 4 4 3 3 3 1 2 3 3 2 4 4 5 6 7 7 7 6 6 5
6 7 9 8 7 6 3 4 4 4 4 6 7 6 7 8 9 7 4 6 6 4 4 4 4 4 3 3 3 3 3 3 3 3 3 4 5 5 5 7 6 5 5
5 6 8 8 7 5 2 3 3 3 3 4 4 5 6 8 7 5 3 3 4 4 5 5 4 5 4 3 3 3 3 4 3 3 3 3 4 4 5 6 5 5 5
6 6 8 7 7 6 3 3 3 3 4 4 2 4 8 9 9 7 5 4 4 4 5 5 5 4 4 4 3 2 2 4 4 3 3 3 3 3 3 4 4 5 5
6 6 7 8 7 6 5 4 4 3 2 3 4 3 5 7 8 8 6 4 4 4 4 4 5 5 3 4 4 3 2 1 1 3 4 3 3 3 2 4 5 5 6
7 6 7 8 7 7 6 4 4 3 3 3 3 3 3 6 7 7 6 5 4 4 5 5 6 4 4 3 3 3 3 2 1 1 3 3 4 4 4 4 6 7 9
7 6 6 8 8 7 6 4 2 3 3 3 3 3 4 4 4 4 5 4 4 4 5 6 5 5 4 4 3 3 4 3 3 2 1 2 3 3 4 4 5 6 9
7 7 6 8 8 6 5 5 4 4 4 4 3 2 3 3 2 3 5 5 5 4 4 4 4 5 4 5 4 4 3 3 3 2 1 1 2 2 3 3 4 4 8
Wind_Direction
94 91 88 87 86 86 86 87 87 87 87 85 83 82 79 76 74 74 72 71 69 66 62 58 56 54 52 50 48 47 48 48 49 53 57 59 62 59 52 46 45 48 46
99 93 88 88 87 86 86 85 85 84 85 84 83 82 80 77 75 74 72 70 69 66 63 60 56 53 49 46 44 42 40 36 28 26 38 53 68 64 59 53 49 46 45
97 96 89 86 86 86 86 85 84 83 83 83 82 81 79 77 76 74 70 68 67 65 61 58 55 50 47 42 37 33 26 15 2 354 350 55 85 72 64 55 51 48 45
95 90 88 86 85 84 85 85 85 84 84 82 81 79 78 77 75 71 69 69 67 64 60 56 50 46 43 38 30 22 10 355 347 347 21 67 77 74 64 57 50 47 45
95 92 90 89 87 86 86 84 83 83 82 80 79 77 76 76 74 70 68 67 63 58 54 51 46 40 34 28 22 12 356 343 336 341 52 75 77 73 66 58 50 47 46
101 98 95 92 90 88 86 85 84 83 81 79 76 75 75 74 72 70 68 62 57 51 46 44 41 34 29 21 13 2 348 338 331 353 72 82 84 76 68 59 52 48 44
106 106 104 100 96 92 88 86 84 83 81 79 77 76 75 73 71 68 67 61 52 46 40 36 31 28 26 16 6 352 339 330 306 313 84 91 93 83 72 60 53 49 45
112 112 114 112 107 101 94 90 88 85 83 82 82 83 85 86 84 76 66 55 45 38 32 27 22 19 12 1 347 334 327 324 333 25 90 98 97 86 73 63 54 50 46
118 126 129 129 120 114 109 104 100 96 93 95 99 105 108 108 103 93 76 57 42 31 21 17 12 2 350 328 312 306 307 312 318 327 86 94 95 87 75 66 57 55 48
117 124 132 134 137 136 130 127 127 127 130 137 159 188 186 173 152 135 105 79 53 30 10 347 332 308 296 285 280 282 290 301 294 63 91 97 94 88 78 69 61 60 50
119 120 121 122 133 138 139 142 158 160 171 183 204 240 236 201 178 166 111 120 116 318 293 279 276 269 269 267 261 266 279 267 201 101 86 96 93 87 79 70 66 64 54
131 125 127 130 130 115 105 135 155 151 156 157 137 157 43 78 78 102 134 172 206 233 259 260 263 262 256 249 243 247 263 260 125 103 95 97 91 85 80 73 71 70 63
121 120 119 112 111 111 102 99 91 98 105 73 33 74 51 34 50 104 162 191 224 218 266 278 256 246 240 218 209 221 215 56 75 93 103 99 96 89 83 77 73 74 69
112 108 105 109 101 86 82 103 102 76 75 56 16 49 62 37 33 42 60 30 9 32 349 320 304 342 12 17 32 31 49 70 83 100 112 108 106 102 95 84 76 75 71
109 102 84 80 90 96 93 102 94 67 66 91 30 39 57 48 35 15 80 49 32 16 9 335 344 20 3 19 33 46 41 58 91 98 113 115 114 110 103 93 84 78 76
124 114 101 100 110 124 124 96 85 109 101 79 40 55 58 55 50 22 34 42 31 14 7 358 8 14 9 24 24 29 46 43 79 106 124 120 114 110 106 99 93 83 79
128 117 107 105 85 73 64 60 85 72 71 68 35 36 62 58 56 38 24 19 15 17 19 16 9 8 16 32 34 42 64 44 64 88 116 126 124 115 110 102 95 88 81
130 121 119 105 91 82 73 49 67 65 59 63 45 24 31 49 63 47 13 12 31 24 15 20 25 11 15 27 26 32 53 50 53 69 89 118 126 128 125 112 99 90 84
129 134 135 106 98 92 102 100 67 76 60 66 58 33 23 33 49 46 19 23 28 32 15 18 30 15 21 16 26 72 59 66 40 49 55 82 98 118 129 126 114 99 93
119 126 117 109 110 112 96 92 81 64 60 65 67 49 31 35 43 35 35 31 27 31 20 26 27 18 23 14 33 67 75 76 68 52 41 59 75 83 113 128 126 117 102
133 128 128 138 131 122 111 100 95 90 84 73 71 44 39 42 39 54 38 37 32 35 32 31 24 21 18 29 44 36 42 56 63 77 53 48 62 63 82 109 120 124 119
152 157 145 129 120 113 105 105 110 95 93 94 80 56 47 44 27 32 40 39 42 42 34 35 39 29 15 30 51 61 38 21 11 45 63 62 55 49 64 82 92 96 108
164 169 136 126 125 122 108 76 73 73 86 101 94 64 51 53 41 29 27 28 41 52 48 45 44 41 28 15 41 64 88 65 348 6 34 45 39 46 53 62 82 79 87
169 158 133 125 119 110 109 97 107 106 92 84 102 116 90 68 56 33 23 26 41 45 41 42 45 37 41 24 12 24 61 101 105 32 3 21 33 42 48 49 57 65 76
150 129 117 112 110 107 109 113 97 94 102 98 98 103 100 86 78 48 29 29 42 51 51 52 45 42 40 38 25 15 20 22 42 83 47 6 18 27 47 51 56 60 68
133 124 117 111 110 117 133 142 128 114 112 105 100 104 114 114 96 70 50 39 43 49 49 49 55 49 45 42 37 33 36 34 21 45 73 61 45 16 50 58 60 66 73
Height
1527 1526 1527 1527 1528 1528 1529 1530 1530 1531 1532 1533 1533 1534 1534 1534 1535 1535 1536 1536 1536 1537 1537 1537 1537 1538 1538 1538 1539 1539 1539 1539 1539 1539 1539 1539 1539 1539 1539 1538 1538 1537 1537
1528 1528 1528 1528 1529 1529 1530 1531 1531 1532 1533 1533 1534 1535 1535 1535 1536 1536 1536 1537 1537 1537 1537 1538 1538 1538 1539 1539 1539 1539 1540 1540 1540 1540 1540 1540 1540 1540 1539 1539 1539 1538 1537
1529 1529 1529 1529 1530 1530 1531 1532 1532 1533 1534 1534 1535 1535 1536 1536 1537 1537 1537 1537 1537 1538 1538 1538 1538 1539 1539 1539 1539 1540 1540 1541 1541 1541 1541 1541 1541 1541 1541 1540 1540 1539 1538
1530 1530 1530 1530 1531 1531 1532 1532 1533 1534 1534 1535 1535 1536 1536 1537 1537 1537 1537 1538 1538 1538 1538 1538 1539 1539 1539 1539 1539 1540 1541 1541 1542 1542 1542 1542 1542 1542 1542 1541 1541 1540 1539
1531 1531 1531 1531 1532 1532 1533 1534 1534 1535 1535 1536 1536 1536 1537 1537 1537 1537 1538 1538 1538 1538 1538 1538 1539 1539 1539 1539 1540 1540 1541 1541 1542 1543 1543 1543 1543 1543 1542 1542 1542 1541 1541
1532 1533 1533 1533 1533 1534 1534 1535 1535 1536 1536 1537 1537 1537 1537 1538 1538 1538 1538 1538 1538 1538 1538 1538 1538 1538 1539 1539 1539 1540 1541 1541 1542 1543 1543 1544 1543 1543 1543 1543 1543 1542 1541
1534 1534 1534 1535 1535 1535 1536 1536 1537 1537 1537 1538 1538 1538 1538 1538 1538 1538 1538 1538 1538 1538 1538 1538 1538 1538 1538 1539 1539 1540 1540 1541 1542 1543 1544 1544 1544 1544 1544 1544 1543 1543 1542
1536 1536 1536 1537 1537 1537 1538 1538 1538 1539 1539 1539 1539 1539 1539 1539 1539 1539 1539 1538 1538 1538 1538 1538 1538 1538 1538 1538 1539 1540 1540 1541 1542 1544 1544 1544 1544 1544 1544 1544 1544 1544 1543
1538 1538 1538 1538 1539 1539 1540 1540 1540 1540 1540 1540 1540 1540 1540 1540 1540 1540 1539 1539 1539 1538 1538 1538 1537 1538 1538 1538 1539 1539 1540 1541 1542 1544 1544 1544 1544 1545 1545 1545 1545 1545 1544
1541 1541 1541 1541 1541 1541 1541 1542 1542 1542 1542 1542 1542 1542 1541 1541 1541 1540 1540 1540 1539 1538 1538 1538 1538 1538 1538 1539 1539 1540 1541 1542 1542 1543 1544 1544 1545 1545 1545 1545 1545 1545 1545
1543 1543 1544 1544 1544 1544 1543 1543 1543 1543 1544 1543 1543 1543 1543 1543 1542 1542 1542 1541 1540 1539 1539 1539 1539 1539 1539 1540 1540 1541 1541 1542 1543 1543 1544 1545 1545 1545 1545 1545 1546 1546 1545
1544 1545 1545 1546 1546 1546 1547 1546 1546 1545 1545 1545 1545 1545 1545 1545 1544 1544 1543 1542 1541 1541 1540 1540 1540 1540 1540 1540 1541 1542 1542 1542 1543 1544 1544 1545 1545 1545 1545 1546 1546 1546 1546
1545 1546 1547 1547 1548 1548 1548 1548 1548 1548 1547 1547 1546 1546 1545 1545 1545 1544 1543 1543 1542 1542 1541 1541 1541 1541 1541 1542 1542 1543 1543 1543 1544 1544 1544 1545 1545 1545 1546 1546 1547 1547 1547
1546 1547 1548 1548 1549 1549 1549 1549 1549 1549 1549 1548 1548 1547 1546 1546 1546 1545 1545 1544 1544 1543 1542 1542 1542 1542 1542 1543 1543 1543 1544 1544 1545 1545 1545 1545 1545 1546 1546 1547 1547 1547 1548
1547 1548 1549 1549 1549 1550 1550 1550 1550 1550 1550 1549 1549 1548 1548 1547 1547 1546 1546 1545 1544 1544 1543 1543 1543 1542 1543 1543 1544 1544 1544 1545 1545 1545 1546 1546 1546 1546 1547 1547 1548 1548 1548
1548 1549 1550 1551 1551 1551 1551 1552 1552 1551 1551 1550 1550 1550 1549 1548 1548 1547 1547 1546 1545 1545 1544 1544 1544 1543 1544 1544 1544 1545 1545 1546 1546 1546 1546 1547 1547 1547 1548 1548 1548 1549 1549
1548 1550 1551 1552 1552 1552 1553 1553 1553 1553 1553 1552 1551 1551 1550 1549 1548 1548 1547 1547 1547 1546 1545 1545 1544 1544 1545 1545 1545 1546 1546 1546 1547 1547 1548 1548 1548 1548 1549 1549 1549 1550 1550
1549 1550 1551 1553 1553 1553 1554 1554 1554 1554 1554 1553 1552 1552 1552 1551 1550 1549 1549 1548 1548 1547 1546 1546 1545 1545 1545 1546 1546 1547 1547 1547 1548 1548 1549 1549 1549 1549 1550 1550 1550 1551 1551
1549 1550 1552 1553 1554 1554 1554 1555 1555 1555 1555 1554 1553 1553 1552 1552 1551 1550 1550 1549 1549 1548 1547 1546 1546 1546 1546 1546 1547 1548 1548 1549 1549 1550 1550 1550 1550 1551 1551 1551 1551 1552 1552
1550 1551 1552 1553 1554 1555 1555 1556 1556 1556 1556 1555 1554 1554 1554 1553 1553 1552 1551 1550 1550 1549 1548 1548 1547 1547 1548 1548 1548 1549 1549 1550 1551 1551 1551 1551 1552 1552 1552 1552 1552 1553 1553
1550 1551 1552 1553 1554 1555 1556 1557 1557 1557 1557 1556 1556 1555 1555 1555 1554 1553 1553 1552 1551 1550 1550 1549 1549 1549 1549 1549 1549 1550 1551 1552 1552 1552 1552 1553 1553 1553 1553 1553 1554 1554 1554
1549 1551 1553 1554 1555 1556 1557 1557 1558 1558 1558 1557 1557 1557 1556 1556 1555 1555 1554 1554 1553 1552 1551 1551 1550 1550 1550 1551 1551 1551 1552 1554 1553 1554 1554 1554 1554 1554 1555 1555 1555 1555 1555
1549 1551 1553 1554 1555 1556 1557 1558 1558 1559 1559 1559 1558 1558 1558 1557 1556 1556 1555 1555 1555 1554 1553 1553 1552 1552 1552 1552 1553 1553 1553 1554 1554 1555 1555 1555 1556 1556 1556 1556 1556 1556 1556
1548 1551 1553 1554 1555 1556 1557 1558 1559 1559 1560 1560 1560 1559 1559 1558 1558 1557 1557 1557 1556 1556 1555 1555 1554 1554 1554 1554 1554 1554 1555 1555 1555 1556 1557 1556 1557 1557 1557 1557 1557 1557 1557
1547 1550 1552 1554 1555 1556 1557 1558 1559 1560 1560 1561 1561 1561 1561 1560 1559 1559 1558 1558 1558 1558 1557 1557 1556 1556 1555 1555 1555 1555 1556 1556 1556 1556 1557 1557 1558 1558 1558 1558 1558 1558 1558
1546 1549 1551 1553 1554 1556 1557 1558 1559 1560 1561 1561 1561 1562 1562 1561 1561 1561 1560 1560 1560 1559 1559 1558 1558 1558 1557 1557 1557 1557 1557 1557 1557 1557 1558 1558 1558 1559 1559 1559 1559 1559 1559